Time,TemperatureF,DewpointF,PressureIn,WindDirection,WindDirectionDegrees,WindSpeedMPH,WindSpeedGustMPH,Humidity,HourlyPrecipIn,Conditions,Clouds,dailyrainin,SoftwareType,DateUTC
2013-03-04 00:01:00,50.0,44.0,30.16,NE,45,2.0,-999.0,79,-99.99,,,-99.99,,2013-03-04 05:01:00,
2013-03-04 00:11:00,50.0,44.0,30.16,NE,45,2.0,-999.0,79,-99.99,,,-99.99,,2013-03-04 05:11:00,
2013-03-04 00:22:00,50.0,44.0,30.16,NNE,14,2.0,-999.0,80,-99.99,,,-99.99,,2013-03-04 05:22:00,
2013-03-04 00:32:00,50.0,44.0,30.15,ENE,60,6.0,-999.0,79,-99.99,,,-99.99,,2013-03-04 05:32:00,
2013-03-04 00:42:00,50.0,44.0,30.15,ENE,60,6.0,-999.0,79,-99.99,,,-99.99,,2013-03-04 05:42:00,
2013-03-04 00:52:00,50.0,44.0,30.15,NE,45,9.0,-999.0,81,-99.99,,,-99.99,,2013-03-04 05:52:00,
2013-03-04 01:02:00,49.0,43.0,30.15,NE,49,10.0,-999.0,80,-99.99,,,-99.99,,2013-03-04 06:02:00,
2013-03-04 01:11:00,49.0,43.0,30.15,NE,49,10.0,-999.0,80,-99.99,,,-99.99,,2013-03-04 06:11:00,
2013-03-04 01:22:00,49.0,43.0,30.15,NE,49,9.0,-999.0,81,-99.99,,,-99.99,,2013-03-04 06:22:00,
2013-03-04 01:32:00,48.0,42.0,30.14,NE,39,7.0,-999.0,80,-99.99,,,-99.99,,2013-03-04 06:32:00,
2013-03-04 01:42:00,48.0,42.0,30.14,NE,39,7.0,-999.0,80,-99.99,,,-99.99,,2013-03-04 06:42:00,
2013-03-04 01:51:00,47.0,41.0,30.14,NE,42,6.0,-999.0,79,-99.99,,,-99.99,,2013-03-04 06:51:00,
2013-03-04 02:02:00,47.0,41.0,30.14,NE,46,5.0,-999.0,78,-99.99,,,-99.99,,2013-03-04 07:02:00,
2013-03-04 02:11:00,47.0,41.0,30.14,NE,46,5.0,-999.0,78,-99.99,,,-99.99,,2013-03-04 07:11:00,
2013-03-04 02:22:00,46.0,40.0,30.14,NE,45,3.0,-999.0,79,-99.99,,,-99.99,,2013-03-04 07:22:00,
2013-03-04 02:32:00,47.0,41.0,30.14,NE,47,5.0,-999.0,80,-99.99,,,-99.99,,2013-03-04 07:32:00,
2013-03-04 02:42:00,47.0,41.0,30.14,NE,47,5.0,-999.0,80,-99.99,,,-99.99,,2013-03-04 07:42:00,
2013-03-04 02:52:00,47.0,41.0,30.14,NE,48,5.0,-999.0,79,-99.99,,,-99.99,,2013-03-04 07:52:00,
2013-03-04 03:02:00,46.0,40.0,30.14,NE,41,2.0,-999.0,78,-99.99,,,-99.99,,2013-03-04 08:02:00,
2013-03-04 03:12:00,46.0,40.0,30.14,NE,41,2.0,-999.0,78,-99.99,,,-99.99,,2013-03-04 08:12:00,
2013-03-04 03:22:00,46.0,40.0,30.14,NE,44,4.0,-999.0,80,-99.99,,,-99.99,,2013-03-04 08:22:00,
2013-03-04 03:32:00,46.0,40.0,30.14,NE,34,2.0,-999.0,79,-99.99,,,-99.99,,2013-03-04 08:32:00,
2013-03-04 03:42:00,46.0,40.0,30.14,NE,34,2.0,-999.0,79,-99.99,,,-99.99,,2013-03-04 08:42:00,
2013-03-04 03:52:00,45.0,39.0,30.14,North,9,1.0,-999.0,79,-99.99,,,-99.99,,2013-03-04 08:52:00,
2013-03-04 04:02:00,44.0,38.0,30.14,NNE,27,1.0,-999.0,79,-99.99,,,-99.99,,2013-03-04 09:02:00,
2013-03-04 04:11:00,44.0,38.0,30.14,NNE,27,1.0,-999.0,79,-99.99,,,-99.99,,2013-03-04 09:11:00,
2013-03-04 04:22:00,44.0,38.0,30.15,NNE,28,1.0,-999.0,80,-99.99,,,-99.99,,2013-03-04 09:22:00,
2013-03-04 04:32:00,45.0,40.0,30.15,NE,50,4.0,-999.0,83,-99.99,,,-99.99,,2013-03-04 09:32:00,
2013-03-04 04:42:00,45.0,40.0,30.15,NE,50,4.0,-999.0,83,-99.99,,,-99.99,,2013-03-04 09:42:00,
2013-03-04 04:52:00,46.0,41.0,30.16,NE,53,7.0,-999.0,81,-99.99,,,-99.99,,2013-03-04 09:52:00,
2013-03-04 05:01:00,46.0,40.0,30.16,ENE,78,3.0,-999.0,79,-99.99,,,-99.99,,2013-03-04 10:01:00,
2013-03-04 05:12:00,46.0,40.0,30.16,ENE,78,3.0,-999.0,79,-99.99,,,-99.99,,2013-03-04 10:12:00,
2013-03-04 05:22:00,46.0,40.0,30.17,East,80,3.0,-999.0,80,-99.99,,,-99.99,,2013-03-04 10:22:00,
2013-03-04 05:32:00,46.0,41.0,30.17,SE,126,3.0,-999.0,81,-99.99,,,-99.99,,2013-03-04 10:32:00,
2013-03-04 05:42:00,46.0,41.0,30.17,SE,126,3.0,-999.0,81,-99.99,,,-99.99,,2013-03-04 10:42:00,
2013-03-04 05:52:00,45.0,39.0,30.17,ESE,102,4.0,-999.0,79,-99.99,,,-99.99,,2013-03-04 10:52:00,
2013-03-04 06:02:00,45.0,39.0,30.17,East,97,3.0,-999.0,79,-99.99,,,-99.99,,2013-03-04 11:02:00,
2013-03-04 06:11:00,45.0,39.0,30.17,East,97,3.0,-999.0,79,-99.99,,,-99.99,,2013-03-04 11:11:00,
2013-03-04 06:22:00,45.0,39.0,30.18,ENE,67,4.0,-999.0,79,-99.99,,,-99.99,,2013-03-04 11:22:00,
2013-03-04 06:32:00,46.0,39.0,30.18,ENE,67,4.0,-999.0,77,-99.99,,,-99.99,,2013-03-04 11:32:00,
2013-03-04 06:42:00,46.0,39.0,30.18,ENE,67,4.0,-999.0,77,-99.99,,,-99.99,,2013-03-04 11:42:00,
2013-03-04 06:52:00,46.0,40.0,30.19,ENE,73,2.0,-999.0,78,-99.99,,,-99.99,,2013-03-04 11:52:00,
2013-03-04 07:02:00,45.0,38.0,30.19,ENE,74,2.0,-999.0,77,-99.99,,,-99.99,,2013-03-04 12:02:00,
2013-03-04 07:11:00,45.0,38.0,30.19,ENE,74,2.0,-999.0,77,-99.99,,,-99.99,,2013-03-04 12:11:00,
2013-03-04 07:22:00,45.0,39.0,30.20,East,94,2.0,-999.0,79,-99.99,,,-99.99,,2013-03-04 12:22:00,
2013-03-04 07:32:00,46.0,41.0,30.20,East,88,2.0,-999.0,82,-99.99,,,-99.99,,2013-03-04 12:32:00,
2013-03-04 07:42:00,46.0,41.0,30.20,East,88,2.0,-999.0,82,-99.99,,,-99.99,,2013-03-04 12:42:00,
2013-03-04 07:52:00,46.0,40.0,30.21,ENE,60,7.0,-999.0,80,-99.99,,,-99.99,,2013-03-04 12:52:00,
2013-03-04 08:02:00,47.0,41.0,30.21,NE,55,7.0,-999.0,78,-99.99,,,-99.99,,2013-03-04 13:02:00,
2013-03-04 08:11:00,47.0,41.0,30.21,NE,55,7.0,-999.0,78,-99.99,,,-99.99,,2013-03-04 13:11:00,
2013-03-04 08:22:00,48.0,41.0,30.22,ENE,62,8.0,-999.0,77,-99.99,,,-99.99,,2013-03-04 13:22:00,
2013-03-04 08:32:00,48.0,41.0,30.22,ENE,74,6.0,-999.0,76,-99.99,,,-99.99,,2013-03-04 13:32:00,
2013-03-04 08:42:00,48.0,41.0,30.22,ENE,74,6.0,-999.0,76,-99.99,,,-99.99,,2013-03-04 13:42:00,
2013-03-04 08:52:00,49.0,41.0,30.22,ENE,57,7.0,-999.0,75,-99.99,,,-99.99,,2013-03-04 13:52:00,
2013-03-04 09:01:00,50.0,41.0,30.23,NE,52,11.0,-999.0,72,-99.99,,,-99.99,,2013-03-04 14:01:00,
2013-03-04 09:12:00,50.0,41.0,30.23,NE,52,11.0,-999.0,72,-99.99,,,-99.99,,2013-03-04 14:12:00,
2013-03-04 09:22:00,50.0,41.0,30.23,NE,39,13.0,-999.0,70,-99.99,,,-99.99,,2013-03-04 14:22:00,
2013-03-04 09:32:00,50.0,41.0,30.24,NE,54,13.0,-999.0,70,-99.99,,,-99.99,,2013-03-04 14:32:00,
2013-03-04 09:42:00,50.0,41.0,30.24,NE,54,13.0,-999.0,70,-99.99,,,-99.99,,2013-03-04 14:42:00,
2013-03-04 09:52:00,51.0,41.0,30.24,ENE,67,10.0,-999.0,69,-99.99,,,-99.99,,2013-03-04 14:52:00,
2013-03-04 10:02:00,52.0,41.0,30.24,ENE,61,10.0,-999.0,67,-99.99,,,-99.99,,2013-03-04 15:02:00,
2013-03-04 10:11:00,52.0,41.0,30.24,ENE,61,10.0,-999.0,67,-99.99,,,-99.99,,2013-03-04 15:11:00,
2013-03-04 10:22:00,52.0,41.0,30.24,ENE,57,10.0,-999.0,67,-99.99,,,-99.99,,2013-03-04 15:22:00,
2013-03-04 10:32:00,53.0,42.0,30.23,NE,50,10.0,-999.0,65,-99.99,,,-99.99,,2013-03-04 15:32:00,
2013-03-04 10:42:00,53.0,42.0,30.23,NE,50,10.0,-999.0,65,-99.99,,,-99.99,,2013-03-04 15:42:00,
2013-03-04 10:52:00,54.0,41.0,30.23,ENE,69,9.0,-999.0,62,-99.99,,,-99.99,,2013-03-04 15:52:00,
2013-03-04 11:03:00,54.0,42.0,30.22,ENE,65,9.0,-999.0,64,-99.99,,,-99.99,,2013-03-04 16:03:00,
2013-03-04 11:11:00,54.0,42.0,30.22,ENE,65,9.0,-999.0,64,-99.99,,,-99.99,,2013-03-04 16:11:00,
2013-03-04 11:21:00,55.0,42.0,30.22,ENE,63,9.0,-999.0,62,-99.99,,,-99.99,,2013-03-04 16:21:00,
2013-03-04 11:32:00,56.0,43.0,30.22,ENE,57,9.0,-999.0,61,-99.99,,,-99.99,,2013-03-04 16:32:00,
2013-03-04 11:42:00,56.0,43.0,30.22,ENE,57,9.0,-999.0,61,-99.99,,,-99.99,,2013-03-04 16:42:00,
2013-03-04 11:52:00,56.0,43.0,30.21,ENE,65,5.0,-999.0,61,-99.99,,,-99.99,,2013-03-04 16:52:00,
2013-03-04 12:02:00,57.0,44.0,30.20,ENE,57,8.0,-999.0,61,-99.99,,,-99.99,,2013-03-04 17:02:00,
2013-03-04 12:11:00,57.0,44.0,30.20,ENE,57,8.0,-999.0,61,-99.99,,,-99.99,,2013-03-04 17:11:00,
2013-03-04 12:22:00,58.0,44.0,30.20,NE,54,8.0,-999.0,59,-99.99,,,-99.99,,2013-03-04 17:22:00,
2013-03-04 12:32:00,58.0,43.0,30.19,East,91,7.0,-999.0,58,-99.99,,,-99.99,,2013-03-04 17:32:00,
2013-03-04 12:42:00,58.0,43.0,30.19,East,91,7.0,-999.0,58,-99.99,,,-99.99,,2013-03-04 17:42:00,
2013-03-04 12:52:00,60.0,41.0,30.18,NE,53,5.0,-999.0,49,-99.99,,,-99.99,,2013-03-04 17:52:00,
2013-03-04 13:02:00,60.0,42.0,30.17,East,100,4.0,-999.0,51,-99.99,,,-99.99,,2013-03-04 18:02:00,
2013-03-04 13:11:00,60.0,42.0,30.17,East,100,4.0,-999.0,51,-99.99,,,-99.99,,2013-03-04 18:11:00,
2013-03-04 13:22:00,60.0,44.0,30.17,East,94,3.0,-999.0,55,-99.99,,,-99.99,,2013-03-04 18:22:00,
2013-03-04 13:32:00,61.0,42.0,30.16,ENE,74,2.0,-999.0,50,-99.99,,,-99.99,,2013-03-04 18:32:00,
2013-03-04 13:42:00,61.0,42.0,30.16,ENE,74,2.0,-999.0,50,-99.99,,,-99.99,,2013-03-04 18:42:00,
2013-03-04 13:52:00,62.0,42.0,30.16,East,98,2.0,-999.0,48,-99.99,,,-99.99,,2013-03-04 18:52:00,
2013-03-04 14:02:00,63.0,44.0,30.15,East,86,3.0,-999.0,49,-99.99,,,-99.99,,2013-03-04 19:02:00,
2013-03-04 14:12:00,63.0,44.0,30.15,East,86,3.0,-999.0,49,-99.99,,,-99.99,,2013-03-04 19:12:00,
2013-03-04 14:22:00,64.0,41.0,30.15,East,98,0.0,-999.0,43,-99.99,,,-99.99,,2013-03-04 19:22:00,
2013-03-04 14:32:00,63.0,42.0,30.15,East,101,0.0,-999.0,47,-99.99,,,-99.99,,2013-03-04 19:32:00,
2013-03-04 14:42:00,63.0,42.0,30.15,East,101,0.0,-999.0,47,-99.99,,,-99.99,,2013-03-04 19:42:00,
2013-03-04 14:52:00,64.0,40.0,30.14,ESE,102,0.0,-999.0,42,-99.99,,,-99.99,,2013-03-04 19:52:00,
2013-03-04 15:02:00,66.0,42.0,30.14,ESE,102,0.0,-999.0,41,-99.99,,,-99.99,,2013-03-04 20:02:00,
2013-03-04 15:12:00,66.0,42.0,30.14,ESE,102,0.0,-999.0,41,-99.99,,,-99.99,,2013-03-04 20:12:00,
2013-03-04 15:22:00,65.0,40.0,30.14,ESE,109,0.0,-999.0,40,-99.99,,,-99.99,,2013-03-04 20:22:00,
2013-03-04 15:32:00,64.0,42.0,30.13,ESE,105,0.0,-999.0,45,-99.99,,,-99.99,,2013-03-04 20:32:00,
2013-03-04 15:42:00,64.0,42.0,30.13,ESE,105,0.0,-999.0,45,-99.99,,,-99.99,,2013-03-04 20:42:00,
2013-03-04 15:52:00,65.0,42.0,30.13,ESE,105,0.0,-999.0,43,-99.99,,,-99.99,,2013-03-04 20:52:00,
2013-03-04 16:02:00,66.0,42.0,30.13,SW,225,1.0,-999.0,42,-99.99,,,-99.99,,2013-03-04 21:02:00,
2013-03-04 16:12:00,66.0,42.0,30.13,SW,225,1.0,-999.0,42,-99.99,,,-99.99,,2013-03-04 21:12:00,
2013-03-04 16:22:00,67.0,44.0,30.12,WSW,242,3.0,-999.0,43,-99.99,,,-99.99,,2013-03-04 21:22:00,
2013-03-04 16:32:00,67.0,44.0,30.12,WNW,290,4.0,-999.0,43,-99.99,,,-99.99,,2013-03-04 21:32:00,
2013-03-04 16:42:00,67.0,44.0,30.12,WNW,290,4.0,-999.0,43,-99.99,,,-99.99,,2013-03-04 21:42:00,
2013-03-04 16:52:00,67.0,44.0,30.12,WNW,284,4.0,-999.0,43,-99.99,,,-99.99,,2013-03-04 21:52:00,
2013-03-04 17:02:00,65.0,44.0,30.12,WNW,291,6.0,-999.0,47,-99.99,,,-99.99,,2013-03-04 22:02:00,
2013-03-04 17:12:00,65.0,44.0,30.12,WNW,291,6.0,-999.0,47,-99.99,,,-99.99,,2013-03-04 22:12:00,
2013-03-04 17:22:00,65.0,44.0,30.12,WNW,291,6.0,-999.0,47,-99.99,,,-99.99,,2013-03-04 22:22:00,
2013-03-04 17:32:00,64.0,44.0,30.12,West,276,6.0,-999.0,49,-99.99,,,-99.99,,2013-03-04 22:32:00,
2013-03-04 17:43:00,64.0,44.0,30.12,West,276,6.0,-999.0,49,-99.99,,,-99.99,,2013-03-04 22:43:00,
2013-03-04 17:52:00,64.0,46.0,30.12,West,278,6.0,-999.0,52,-99.99,,,-99.99,,2013-03-04 22:52:00,
2013-03-04 18:02:00,63.0,46.0,30.13,West,273,6.0,-999.0,54,-99.99,,,-99.99,,2013-03-04 23:02:00,
2013-03-04 18:11:00,63.0,46.0,30.13,West,273,6.0,-999.0,54,-99.99,,,-99.99,,2013-03-04 23:11:00,
2013-03-04 18:22:00,61.0,46.0,30.13,WNW,292,6.0,-999.0,58,-99.99,,,-99.99,,2013-03-04 23:22:00,
2013-03-04 18:32:00,60.0,46.0,30.13,WNW,302,6.0,-999.0,60,-99.99,,,-99.99,,2013-03-04 23:32:00,
2013-03-04 18:42:00,60.0,46.0,30.13,WNW,302,6.0,-999.0,60,-99.99,,,-99.99,,2013-03-04 23:42:00,
2013-03-04 18:52:00,59.0,46.0,30.14,WNW,293,6.0,-999.0,62,-99.99,,,-99.99,,2013-03-04 23:52:00,
2013-03-04 19:02:00,58.0,45.0,30.14,WNW,294,4.0,-999.0,63,-99.99,,,-99.99,,2013-03-05 00:02:00,
2013-03-04 19:12:00,58.0,45.0,30.14,WNW,294,4.0,-999.0,63,-99.99,,,-99.99,,2013-03-05 00:12:00,
2013-03-04 19:22:00,58.0,46.0,30.14,WNW,299,4.0,-999.0,64,-99.99,,,-99.99,,2013-03-05 00:22:00,
2013-03-04 19:32:00,57.0,46.0,30.14,West,271,2.0,-999.0,66,-99.99,,,-99.99,,2013-03-05 00:32:00,
2013-03-04 19:42:00,57.0,46.0,30.14,West,271,2.0,-999.0,66,-99.99,,,-99.99,,2013-03-05 00:42:00,
2013-03-04 19:51:00,57.0,47.0,30.14,WNW,296,1.0,-999.0,68,-99.99,,,-99.99,,2013-03-05 00:51:00,
2013-03-04 20:02:00,56.0,46.0,30.15,WNW,297,1.0,-999.0,70,-99.99,,,-99.99,,2013-03-05 01:02:00,
2013-03-04 20:12:00,56.0,46.0,30.15,WNW,297,1.0,-999.0,70,-99.99,,,-99.99,,2013-03-05 01:12:00,
2013-03-04 20:22:00,55.0,46.0,30.15,WNW,296,2.0,-999.0,71,-99.99,,,-99.99,,2013-03-05 01:22:00,
2013-03-04 20:33:00,55.0,47.0,30.16,WNW,296,1.0,-999.0,73,-99.99,,,-99.99,,2013-03-05 01:33:00,
2013-03-04 20:42:00,55.0,47.0,30.16,WNW,296,1.0,-999.0,73,-99.99,,,-99.99,,2013-03-05 01:42:00,
2013-03-04 20:52:00,55.0,47.0,30.16,WNW,297,1.0,-999.0,75,-99.99,,,-99.99,,2013-03-05 01:52:00,
2013-03-04 21:02:00,54.0,47.0,30.17,WNW,297,0.0,-999.0,76,-99.99,,,-99.99,,2013-03-05 02:02:00,
2013-03-04 21:12:00,54.0,47.0,30.17,WNW,297,0.0,-999.0,76,-99.99,,,-99.99,,2013-03-05 02:12:00,
2013-03-04 21:22:00,54.0,47.0,30.17,WNW,298,0.0,-999.0,78,-99.99,,,-99.99,,2013-03-05 02:22:00,
2013-03-04 21:32:00,54.0,47.0,30.17,WNW,298,0.0,-999.0,77,-99.99,,,-99.99,,2013-03-05 02:32:00,
2013-03-04 21:42:00,54.0,47.0,30.17,WNW,298,0.0,-999.0,77,-99.99,,,-99.99,,2013-03-05 02:42:00,
2013-03-04 21:52:00,54.0,47.0,30.17,WNW,298,0.0,-999.0,78,-99.99,,,-99.99,,2013-03-05 02:52:00,
2013-03-04 22:02:00,54.0,47.0,30.17,WNW,298,0.0,-999.0,78,-99.99,,,-99.99,,2013-03-05 03:02:00,
2013-03-04 22:12:00,54.0,47.0,30.17,WNW,298,0.0,-999.0,78,-99.99,,,-99.99,,2013-03-05 03:12:00,
2013-03-04 22:22:00,54.0,48.0,30.16,WNW,300,0.0,-999.0,80,-99.99,,,-99.99,,2013-03-05 03:22:00,
2013-03-04 22:32:00,54.0,48.0,30.16,NE,47,1.0,-999.0,80,-99.99,,,-99.99,,2013-03-05 03:32:00,
2013-03-04 22:42:00,54.0,48.0,30.16,NE,47,1.0,-999.0,80,-99.99,,,-99.99,,2013-03-05 03:42:00,
2013-03-04 22:52:00,54.0,48.0,30.16,NE,47,1.0,-999.0,79,-99.99,,,-99.99,,2013-03-05 03:52:00,
2013-03-04 23:02:00,54.0,48.0,30.16,NE,46,0.0,-999.0,81,-99.99,,,-99.99,,2013-03-05 04:02:00,
2013-03-04 23:12:00,54.0,48.0,30.16,NE,46,0.0,-999.0,81,-99.99,,,-99.99,,2013-03-05 04:12:00,
2013-03-04 23:22:00,53.0,47.0,30.17,NE,45,0.0,-999.0,79,-99.99,,,-99.99,,2013-03-05 04:22:00,
2013-03-04 23:32:00,53.0,46.0,30.17,NE,42,1.0,-999.0,78,-99.99,,,-99.99,,2013-03-05 04:32:00,
2013-03-04 23:42:00,53.0,46.0,30.17,NE,42,1.0,-999.0,78,-99.99,,,-99.99,,2013-03-05 04:42:00,
2013-03-04 23:52:00,52.0,46.0,30.17,NE,42,0.0,-999.0,80,-99.99,,,-99.99,,2013-03-05 04:52:00,